Location: Bottenau
(48.5138°N, 8.0462°E)
Time: 04:09:35
(UTC+00:00)

Resurs 01 Rocket - Pass Details

Date: 18 April 2021
Orbit: 634 x 644 km, 97.9° (Epoch: 09 May)

Event Time Altitude Azimuth Distance (km) Brightness Sun altitude
Exits shadow 20:50:19 14° 211° (SSW) 1,798 3.8 -21.0°
Maximum altitude 20:53:26 28° 265° (W) 1,208 3.4 -21.4°
Drops below altitude 10° 20:57:18 10° 325° (NW) 2,052 5.4 -21.8°
Sets 20:59:47 0° 337° (NNW) 2,967 6.4 -22.1°
